(330064) = 2005 VX1

Discovered at Socorro on 2005-11-04 by LINEAR.

Orbit

Orbit type: Main Belt

Note: WebGL enabled browser required.

epoch2024-03-31.0
epoch JD2460400.5
perihelion date2022-06-12.79170
perihelion JD2459743.29170
argument of perihelion (°)149.95625
ascending node (°)214.18225
inclination (°)33.52389
eccentricity0.2595406
perihelion distance (AU)1.9343723
Tisserand w.r.t. Jupiter3.1
ΔV w.r.t. Earth (km/sec)13.5
semimajor axis (AU)2.6123946
mean anomaly (°)153.40825
mean daily motion (°/day)0.23342410
aphelion distance (AU)3.290
period (years)4.22
P-vector [x]0.95060232
P-vector [y]0.01943460
P-vector [z]0.30980240
Q-vector [x]0.00873262
Q-vector [y]0.99596876
Q-vector [z]-0.08927466
absolute magnitude16.27
phase slope0.15
uncertainty0
referenceMPEC 2024-C37
observations used332
oppositions11
arc length (days)6339
first opposition used2005
last opposition used2023
residual rms (arc-secs)0.69
perturbers coarse indicatorM-v
perturbers precise indicator003Ek
first observation date used2005-09-19.0
last observation date used2023-01-27.0
computer nameMPCLINUX
JD of orbit computation2456612.535608
perihelion JD uncertainty (days)9.4388E-05
argument of perihelion uncertainty (°)2.6320E-05
ascending node uncertainty (°)1.1378E-05
inclination uncertainty (°)1.5449E-05
eccentricity uncertainty 2.4626E-07
perihelion distance uncertainty (AU)7.0764E-07
Minimum Orbit Intersection Distances (in AU)
for orbit epoch: 2460200.5, reference: E2024-C37
Mercury1.61081
Venus1.24318
Earth0.9698
Mars0.54618
Jupiter2.27484
Saturn6.54025
Uranus15.3533
Neptune27.5131

Observations

336 total observations over interval: 2005 09 19.45258 – 2023 01 27.139342
These data are available for download (format description).

Date (UT) J2000 RA J2000 Dec Magn Location Ref
2005 09 19.45258 03 32 26.36 +23 22 48.7 19.5 R 644 – Palomar Mountain/NEAT MPS 151149
2005 09 19.47506 03 32 26.91 +23 22 25.4 19.8 R 644 – Palomar Mountain/NEAT MPS 151149
2005 09 19.49690 03 32 27.47 +23 22 02.0 19.5 R 644 – Palomar Mountain/NEAT MPS 151149
2005 10 05.30954 03 34 47.00 +17 55 19.3 18.7   704 – Lincoln Laboratory ETS, New Mexico MPS 151149
2005 10 05.32042 03 34 46.90 +17 55 04.3 18.8   704 – Lincoln Laboratory ETS, New Mexico MPS 151149
2005 10 05.33129 03 34 46.70 +17 54 48.5 18.9   704 – Lincoln Laboratory ETS, New Mexico MPS 151149
2005 10 05.34217 03 34 46.60 +17 54 33.5 19.3   704 – Lincoln Laboratory ETS, New Mexico MPS 151149
2005 10 05.35304 03 34 46.53 +17 54 16.1 19.7   704 – Lincoln Laboratory ETS, New Mexico MPS 151149
2005 10 07.42302 03 34 21.68 +17 04 07.2 18.7 V 703 – Catalina Sky Survey MPS 151149
2005 10 07.42882 03 34 21.57 +17 03 57.6 18.6 V 703 – Catalina Sky Survey MPS 151149
2005 10 07.43446 03 34 21.50 +17 03 50.6 19.1 V 703 – Catalina Sky Survey MPS 151149
2005 10 07.44001 03 34 21.39 +17 03 42.8 19.0 V 703 – Catalina Sky Survey MPS 151149
2005 10 12.31009 03 32 47.08 +14 59 51.2 18.8   704 – Lincoln Laboratory ETS, New Mexico MPS 151149
2005 10 12.32100 03 32 46.81 +14 59 34.5 19.8   704 – Lincoln Laboratory ETS, New Mexico MPS 151149
2005 10 12.33192 03 32 46.49 +14 59 17.8 19.3   704 – Lincoln Laboratory ETS, New Mexico MPS 151150
2005 10 12.34282 03 32 46.19 +14 59 00.3 20.0   704 – Lincoln Laboratory ETS, New Mexico MPS 151150
2005 10 12.35373 03 32 45.89 +14 58 42.3 19.3   704 – Lincoln Laboratory ETS, New Mexico MPS 151150
2005 10 27.30921 03 23 21.67 +08 04 25.9 18.6 R 699 – Lowell Observatory-LONEOS MPS 151150
2005 10 27.34398 03 23 19.93 +08 03 27.2 18.4 V 703 – Catalina Sky Survey MPS 151150
2005 10 27.34883 03 23 19.64 +08 03 19.6 18.4 V 703 – Catalina Sky Survey MPS 151150
2005 10 27.35366 03 23 19.42 +08 03 11.5 18.3 V 703 – Catalina Sky Survey MPS 151150
2005 10 27.35704 03 23 19.25 +08 03 04.9   699 – Lowell Observatory-LONEOS MPS 151150
2005 10 27.35868 03 23 19.17 +08 03 01.9 18.3 V 703 – Catalina Sky Survey MPS 151150
2005 10 27.38094 03 23 18.00 +08 02 24.2   699 – Lowell Observatory-LONEOS MPS 151150
2005 11 04.39453 03 16 22.32 +04 18 30.0 18.8   704 – Lincoln Laboratory ETS, New Mexico MPS 149889
2005 11 04.40642 03 16 21.64 +04 18 11.2 19.1   704 – Lincoln Laboratory ETS, New Mexico MPS 149889
2005 11 04.41830 03 16 21.00 +04 17 51.0 19.3   704 – Lincoln Laboratory ETS, New Mexico MPS 149889
2005 11 04.43023 03 16 20.34 +04 17 31.5 19.1   704 – Lincoln Laboratory ETS, New Mexico MPS 149889
2005 11 04.44211 03 16 19.65 +04 17 13.3 19.1   704 – Lincoln Laboratory ETS, New Mexico MPS 149889
2005 11 05.25585 03 15 35.97 +03 55 09.3 18.4   704 – Lincoln Laboratory ETS, New Mexico MPS 149890
2005 11 05.26831 03 15 35.25 +03 54 49.6 18.7   704 – Lincoln Laboratory ETS, New Mexico MPS 149890
2005 11 05.28071 03 15 34.59 +03 54 29.5 18.8   704 – Lincoln Laboratory ETS, New Mexico MPS 149890
2005 11 05.29319 03 15 33.90 +03 54 09.0 18.8   704 – Lincoln Laboratory ETS, New Mexico MPS 149890
2005 11 05.30559 03 15 33.12 +03 53 48.6 18.7   704 – Lincoln Laboratory ETS, New Mexico MPS 149890
2005 11 06.25518 03 14 41.66 +03 28 20.4 18.7   704 – Lincoln Laboratory ETS, New Mexico MPS 149890
2005 11 06.26772 03 14 40.84 +03 28 00.6 19.1   704 – Lincoln Laboratory ETS, New Mexico MPS 149890
2005 11 06.28022 03 14 40.15 +03 27 40.4 18.8   704 – Lincoln Laboratory ETS, New Mexico MPS 149890
2005 11 06.29266 03 14 39.43 +03 27 19.9 18.8   704 – Lincoln Laboratory ETS, New Mexico MPS 149890
2005 11 06.30508 03 14 38.72 +03 27 00.3 18.8   704 – Lincoln Laboratory ETS, New Mexico MPS 149890
2005 11 07.25259 03 13 47.22 +03 01 52.2 18.4   704 – Lincoln Laboratory ETS, New Mexico MPS 149890
2005 11 07.26487 03 13 46.52 +03 01 33.2 18.8   704 – Lincoln Laboratory ETS, New Mexico MPS 149890
2005 11 07.27714 03 13 45.85 +03 01 13.3 18.9   704 – Lincoln Laboratory ETS, New Mexico MPS 149890
2005 11 07.28934 03 13 45.17 +03 00 54.0 19.1   704 – Lincoln Laboratory ETS, New Mexico MPS 149890
2005 11 07.30155 03 13 44.43 +03 00 34.5 18.9   704 – Lincoln Laboratory ETS, New Mexico MPS 149890
2005 11 29.19598 02 56 13.02 -04 48 44.7 19.4 R 644 – Palomar Mountain/NEAT MPS 153865
2005 11 29.21735 02 56 12.21 -04 49 05.1 19.4 R 644 – Palomar Mountain/NEAT MPS 153865
2005 11 29.23835 02 56 11.40 -04 49 24.7 19.4 R 644 – Palomar Mountain/NEAT MPS 153865
2005 11 30.27885 02 55 34.82 -05 05 20.7 19.1 V 703 – Catalina Sky Survey MPS 152327
2005 11 30.28744 02 55 34.46 -05 05 29.1 19.0 V 703 – Catalina Sky Survey MPS 152327
2005 11 30.29603 02 55 34.14 -05 05 36.3 18.8 V 703 – Catalina Sky Survey MPS 152327
2005 11 30.30462 02 55 33.78 -05 05 44.5 18.9 V 703 – Catalina Sky Survey MPS 152327
2005 12 06.21366 02 52 40.44 -06 24 41.3 19.1 V 703 – Catalina Sky Survey MPS 153865
2005 12 06.21968 02 52 40.29 -06 24 45.2 19.5 V 703 – Catalina Sky Survey MPS 153865
2005 12 06.22571 02 52 40.15 -06 24 50.8 19.2 V 703 – Catalina Sky Survey MPS 153865
2005 12 06.23169 02 52 40.00 -06 24 54.2 19.2 V 703 – Catalina Sky Survey MPS 153865
2008 04 29.33809 14 34 28.16 -09 58 10.9 20.4 V G96 – Mt. Lemmon Survey MPS 248991
2008 04 29.34421 14 34 27.84 -09 58 06.1 20.4 V G96 – Mt. Lemmon Survey MPS 248991
2008 04 29.35035 14 34 27.51 -09 58 01.4 20.2 V G96 – Mt. Lemmon Survey MPS 248991
2008 04 29.35638 14 34 27.19 -09 57 56.8 20.4 V G96 – Mt. Lemmon Survey MPS 248991
2008 05 02.32512 14 31 51.60 -09 20 16.3 20.6 V G96 – Mt. Lemmon Survey MPS 248991
2008 05 02.32780 14 31 51.45 -09 20 14.2 20.6 V G96 – Mt. Lemmon Survey MPS 248991
2008 05 02.33048 14 31 51.31 -09 20 12.4 20.5 V G96 – Mt. Lemmon Survey MPS 248991
2008 05 02.33316 14 31 51.16 -09 20 10.4 20.7 V G96 – Mt. Lemmon Survey MPS 248991
2008 05 04.93964 14 29 34.95 -08 47 19.9 19.5 V A50 – Andrushivka Astronomical Observatory MPS 249823
2008 05 04.94135 14 29 34.92 -08 47 18.1 19.5 V A50 – Andrushivka Astronomical Observatory MPS 249823
2008 05 04.94307 14 29 34.81 -08 47 18.1 19.9 V A50 – Andrushivka Astronomical Observatory MPS 249823
2008 05 04.95495 14 29 34.14 -08 47 08.7 20.3 V A50 – Andrushivka Astronomical Observatory MPS 249823
2009 09 19.93265 23 14 06.06 +37 20 28.1 18.4 R 113 – Volkssternwarte Drebach, Schoenbrunn MPS 295859
2009 09 19.93633 23 14 05.95 +37 20 23.6 18.7 R 113 – Volkssternwarte Drebach, Schoenbrunn MPS 295859
2009 09 19.94002 23 14 05.85 +37 20 17.6 18.9 R 113 – Volkssternwarte Drebach, Schoenbrunn MPS 295859
2009 09 19.94370 23 14 05.69 +37 20 13.4 18.2 R 113 – Volkssternwarte Drebach, Schoenbrunn MPS 295859
2009 09 19.94745 23 14 05.58 +37 20 08.1 18.7 R 113 – Volkssternwarte Drebach, Schoenbrunn MPS 295859
2009 09 22.87178 23 12 45.57 +36 12 50.3 18.4 R 113 – Volkssternwarte Drebach, Schoenbrunn MPS 295859
2009 09 22.87418 23 12 45.50 +36 12 47.4 18.6 R 113 – Volkssternwarte Drebach, Schoenbrunn MPS 295859
2009 09 22.87659 23 12 45.46 +36 12 43.8 18.3 R 113 – Volkssternwarte Drebach, Schoenbrunn MPS 295859
2009 09 26.22556 23 11 23.78 +34 49 09.4 19.1 V 703 – Catalina Sky Survey MPS 296946
2009 09 26.23322 23 11 23.71 +34 48 58.2 18.9 V 703 – Catalina Sky Survey MPS 296946
2009 09 26.24095 23 11 23.46 +34 48 46.3 19.0 V 703 – Catalina Sky Survey MPS 296946
2009 09 26.24855 23 11 23.28 +34 48 34.4 18.9 V 703 – Catalina Sky Survey MPS 296946
2009 09 29.23232 23 10 22.20 +33 28 42.8 18.5   704 – Lincoln Laboratory ETS, New Mexico MPS 296946
2009 09 29.24465 23 10 21.89 +33 28 21.9 19.2   704 – Lincoln Laboratory ETS, New Mexico MPS 296946
2009 09 29.25700 23 10 21.60 +33 28 01.0 19.2   704 – Lincoln Laboratory ETS, New Mexico MPS 296946
2009 09 29.26938 23 10 21.33 +33 27 40.6 18.9   704 – Lincoln Laboratory ETS, New Mexico MPS 296946
2009 09 29.28172 23 10 21.11 +33 27 20.7 19.4   704 – Lincoln Laboratory ETS, New Mexico MPS 296946
2009 11 09.09367 23 22 10.70 +13 00 19.0 19.2 V 703 – Catalina Sky Survey MPS 302193
2009 11 09.10087 23 22 10.99 +13 00 07.5 19.3 V 703 – Catalina Sky Survey MPS 302193
2009 11 09.10819 23 22 11.35 +12 59 55.3 19.5 V 703 – Catalina Sky Survey MPS 302193
2009 11 09.11542 23 22 11.67 +12 59 44.8 19.0 V 703 – Catalina Sky Survey MPS 302193
